Weather History for KBKE - April, 2013

Change the Weather History Date:

Sunday, April 28, 2013

  Actual Average Record
Temperature  
Mean Temperature 50 °F 46 °F  
Max Temperature 64 °F 61 °F 84 °F (1987)
Min Temperature 35 °F 31 °F 20 °F (2002)
Degree Days  
Heating Degree Days 15 19  
Month to date heating degree days 636 609  
Since 1 July heating degree days 6857 6977  
Cooling Degree Days 0 0  
Month to date cooling degree days 0 0  
Year to date cooling degree days 0 0  
Moisture  
Dew Point 33 °F    
Average Humidity 56    
Maximum Humidity 82    
Minimum Humidity 30    
Precipitation  
Precipitation 0.00 in 0.03 in 0.34 in (1965)
Month to date precipitation 0.35 0.78  
Year to date precipitation 1.93 2.98  
Sea Level Pressure  
Sea Level Pressure 30.08 in    
Wind  
Wind Speed 6 mph (WNW)    
Max Wind Speed 16 mph    
Max Gust Speed 21 mph    
Visibility 10 miles    
Events      
T = Trace of Precipitation, MM = Missing Value Source: NWS Daily Summary

Daily Weather History Graph

Daily Weather History Graph

Search for Another Location

Airport or City:

Trip Planner

Search our weather history database for the weather conditions in past years. The results will help you decide how hot, cold, wet, or windy it might be!

Date:

Astronomy

Apr. 28, 2013 Rise Set
Actual Time 5:44 AM PDT 7:53 PM PDT
Civil Twilight 5:13 AM PDT 8:25 PM PDT
Nautical Twilight 4:33 AM PDT 9:04 PM PDT
Astronomical Twilight 3:50 AM PDT 9:48 PM PDT
Moon 11:32 PM PDT (4/28) 8:01 AM PDT (4/28)
Length of Visible Light 15h 12m
Length of Day
14h 08m
Waning Gibbous, 88% of the Moon is Illuminated
Apr 28
Waning Gibbous
May 2
Last Quarter
May 9
New
May 17
First Quarter
May 24
Full

Hourly Weather History & Observations

Time (PDT) Temp. Windchill Dew Point Humidity Pressure Visibility Wind Dir Wind Speed Gust Speed Precip Events Conditions
12:53 AM 48.9 °F - 28.9 °F 46% 30.10 in 10.0 mi SSW 3.5 mph - N/A   Clear
1:53 AM 48.0 °F - 30.0 °F 50% 30.10 in 10.0 mi SSW 3.5 mph - N/A   Clear
2:53 AM 46.9 °F - 30.9 °F 54% 30.10 in 10.0 mi West 5.8 mph - N/A   Clear
3:53 AM 46.0 °F 42.5 °F 33.1 °F 61% 30.10 in 10.0 mi NNW 6.9 mph - N/A   Clear
4:53 AM 43.0 °F 39.5 °F 34.0 °F 71% 30.11 in 10.0 mi SSW 5.8 mph - N/A   Scattered Clouds
5:53 AM 35.6 °F 30.7 °F 30.2 °F 81% 30.13 in 10.0 mi SE 5.8 mph - N/A   Mostly Cloudy
6:53 AM 45.0 °F 42.6 °F 33.1 °F 63% 30.12 in 6.0 mi South 4.6 mph - N/A   Haze
7:53 AM 46.0 °F - 36.0 °F 68% 30.14 in 10.0 mi Calm Calm - N/A   Overcast
8:53 AM 50.0 °F - 36.0 °F 59% 30.14 in 10.0 mi NNW 3.5 mph - N/A   Overcast
9:53 AM 54.0 °F - 37.9 °F 55% 30.14 in 10.0 mi NNW 6.9 mph - N/A   Overcast
10:53 AM 55.9 °F - 36.0 °F 47% 30.14 in 10.0 mi North 10.4 mph 18.4 mph N/A   Partly Cloudy
11:53 AM 57.9 °F - 36.0 °F 44% 30.13 in 10.0 mi NNW 4.6 mph - N/A   Mostly Cloudy
12:53 PM 60.1 °F - 33.1 °F 36% 30.10 in 10.0 mi WNW 8.1 mph - N/A   Clear
1:53 PM 62.1 °F - 33.1 °F 34% 30.08 in 10.0 mi Variable 5.8 mph - N/A   Partly Cloudy
2:53 PM 62.1 °F - 30.9 °F 31% 30.06 in 10.0 mi Calm Calm - N/A   Partly Cloudy
3:53 PM 63.0 °F - 32.0 °F 31% 30.04 in 10.0 mi NW 11.5 mph - N/A   Clear
4:53 PM 63.0 °F - 32.0 °F 31% 30.03 in 10.0 mi NW 10.4 mph - N/A   Clear
5:53 PM 60.1 °F - 30.9 °F 33% 30.05 in 10.0 mi NNE 9.2 mph - N/A   Clear
6:53 PM 55.9 °F - 30.0 °F 37% 30.02 in 10.0 mi North 13.8 mph - N/A   Clear
7:53 PM 52.0 °F - 30.9 °F 45% 30.03 in 10.0 mi NNW 6.9 mph - N/A   Clear
8:53 PM 51.1 °F - 32.0 °F 48% 30.04 in 10.0 mi Calm Calm - N/A   Clear
9:53 PM 48.0 °F - 33.1 °F 56% 30.03 in 10.0 mi South 5.8 mph - N/A   Clear
10:53 PM 45.0 °F 42.6 °F 34.0 °F 65% 30.01 in 10.0 mi SSW 4.6 mph - N/A   Clear
11:53 PM 37.0 °F - 30.0 °F 76% 30.00 in 10.0 mi Calm Calm - N/A   Scattered Clouds